Olney-Noble, IL

4:22 PM CDT on August 20, 2017 (GMT -0500)
Olney-Noble

Weather History for KOLY - February, 2013

Change the Weather History Date:

Sunday, February 10, 2013

  Actual Average (KEVV) Record (KEVV)
Temperature  
Mean Temperature 45 °F -  
Max Temperature 53 °F 42 °F 70 °F (1898)
Min Temperature 37 °F 24 °F -7 °F (1899)
Degree Days  
Heating Degree Days 20    
Moisture  
Dew Point 44 °F    
Average Humidity 87    
Maximum Humidity 100    
Minimum Humidity 76    
Precipitation  
Precipitation 0.35 in - - ()
Sea Level Pressure  
Sea Level Pressure 29.85 in    
Wind  
Wind Speed 10 mph (SSE)    
Max Wind Speed 21 mph    
Max Gust Speed 32 mph    
Visibility 10 miles    
Events Rain , Thunderstorm    
Averages and records for this station are not official NWS values.
T = Trace of Precipitation, MM = Missing Value Source: NWS Daily Summary

Daily Weather History Graph

Daily Weather History Graph

Search for Another Location

Airport or City:

Trip Planner

Search our weather history database for the weather conditions in past years. The results will help you decide how hot, cold, wet, or windy it might be!

Date:

Astronomy

Feb. 10, 2013 Rise Set
Actual Time 6:49 AM CST 5:25 PM CST
Civil Twilight 6:21 AM CST 5:52 PM CST
Nautical Twilight 5:50 AM CST 6:24 PM CST
Astronomical Twilight 5:19 AM CST 6:54 PM CST
Moon 6:39 AM CST (2/10) 6:14 PM CST (2/10)
Length of Visible Light 11h 30m
Length of Day
10h 35m
New Moon, 0% of the Moon is Illuminated
Feb 10
New Moon
Feb 17
First Quarter
Feb 25
Full
Mar 4
Last Quarter
Mar 11
New

Hourly Weather History & Observations

Time (CST) Temp. Windchill Dew Point Humidity Pressure Visibility Wind Dir Wind Speed Gust Speed Precip Events Conditions
12:15 AM 39.2 °F 33.0 °F 33.8 °F 81% 30.09 in 10.0 mi SE 9.2 mph - N/A Rain Light Rain
12:35 AM 39.2 °F 35.0 °F 33.8 °F 81% 30.09 in 10.0 mi ESE 5.8 mph - 0.02 in Rain Rain
12:55 AM 39.2 °F 35.0 °F 35.6 °F 87% 30.09 in 10.0 mi SE 5.8 mph - 0.01 in Rain Light Rain
1:15 AM 39.2 °F - 35.6 °F 87% 30.08 in 10.0 mi Calm Calm - 0.03 in Rain Rain
1:35 AM 39.2 °F 37.0 °F 35.6 °F 87% 30.08 in 10.0 mi East 3.5 mph - 0.03 in Rain Light Rain
1:55 AM 37.4 °F 32.1 °F 35.6 °F 93% 30.07 in 10.0 mi East 6.9 mph - N/A   Overcast
2:15 AM 39.2 °F 35.9 °F 35.6 °F 87% 30.07 in 10.0 mi ENE 4.6 mph - N/A   Overcast
2:35 AM 39.2 °F 35.9 °F 35.6 °F 87% 30.06 in 10.0 mi ENE 4.6 mph - N/A   Overcast
2:55 AM 39.2 °F 34.2 °F 35.6 °F 87% 30.05 in 10.0 mi East 6.9 mph - N/A   Overcast
3:15 AM 39.2 °F 33.6 °F 35.6 °F 87% 30.03 in 10.0 mi East 8.1 mph - N/A   Mostly Cloudy
3:35 AM 39.2 °F 33.0 °F 33.8 °F 81% 30.02 in 10.0 mi East 9.2 mph - N/A   Mostly Cloudy
3:55 AM 39.2 °F 33.0 °F 33.8 °F 81% 30.01 in 10.0 mi ESE 9.2 mph - N/A Rain Light Rain
4:15 AM 39.2 °F 33.0 °F 33.8 °F 81% 30.00 in 10.0 mi ESE 9.2 mph - N/A Rain Light Rain
4:35 AM 39.2 °F 33.0 °F 33.8 °F 81% 30.00 in 10.0 mi ESE 9.2 mph - N/A   Overcast
4:55 AM 41.0 °F 35.8 °F 35.6 °F 81% 29.99 in 10.0 mi SE 8.1 mph - N/A Rain Light Rain
5:15 AM 41.0 °F 35.8 °F 35.6 °F 81% 29.97 in 10.0 mi ESE 8.1 mph - N/A   Overcast
5:35 AM 41.0 °F 36.4 °F 35.6 °F 81% 29.98 in 10.0 mi SE 6.9 mph - 0.01 in Rain Light Rain
5:55 AM 42.8 °F 37.5 °F 37.4 °F 81% 29.97 in 10.0 mi SE 9.2 mph - N/A   Overcast
6:15 AM 42.8 °F 37.0 °F 37.4 °F 81% 29.96 in 10.0 mi SE 10.4 mph - N/A Rain Light Rain
6:35 AM 42.8 °F 37.0 °F 39.2 °F 87% 29.96 in 10.0 mi SE 10.4 mph - N/A Rain Light Rain
6:55 AM 42.8 °F 36.2 °F 39.2 °F 87% 29.96 in 10.0 mi SE 12.7 mph - N/A Rain Light Rain
7:15 AM 44.6 °F 39.2 °F 39.2 °F 81% 29.96 in 10.0 mi SE 10.4 mph - N/A   Overcast
7:35 AM 44.6 °F 39.2 °F 39.2 °F 81% 29.94 in 7.0 mi SE 10.4 mph - N/A Rain Light Rain
7:55 AM 46.4 °F 39.5 °F 39.2 °F 76% 29.93 in 10.0 mi SE 17.3 mph - N/A   Overcast
8:15 AM 46.4 °F 39.5 °F 41.0 °F 81% 29.92 in 7.0 mi SE 17.3 mph 23.0 mph N/A Rain Rain
8:35 AM 46.4 °F 40.1 °F 41.0 °F 81% 29.90 in 10.0 mi SE 15.0 mph 21.9 mph N/A   Mostly Cloudy
8:55 AM 46.4 °F 39.2 °F 41.0 °F 81% 29.89 in 10.0 mi SE 18.4 mph 23.0 mph N/A   Overcast
9:15 AM 48.2 °F - 41.0 °F 76% 29.87 in 10.0 mi SE 18.4 mph 26.5 mph N/A   Overcast
9:35 AM 48.2 °F - 41.0 °F 76% 29.86 in 10.0 mi SE 20.7 mph 25.3 mph N/A Rain , Thunderstorm Light Thunderstorms and Rain
9:55 AM 48.2 °F - 41.0 °F 76% 29.84 in 10.0 mi SE 18.4 mph 28.8 mph N/A   Overcast
10:15 AM 48.2 °F - 41.0 °F 76% 29.86 in 10.0 mi SSE 15.0 mph 26.5 mph N/A Rain , Thunderstorm Light Thunderstorms and Rain
10:35 AM 48.2 °F - 42.8 °F 82% 29.89 in 2.0 mi SSE 10.4 mph - 0.05 in Rain , Thunderstorm Thunderstorms and Rain
10:55 AM 46.4 °F 42.4 °F 42.8 °F 87% 29.91 in 7.0 mi South 8.1 mph - 0.05 in Rain , Thunderstorm Heavy Thunderstorms and Rain
11:15 AM 46.4 °F 42.4 °F 44.6 °F 93% 29.88 in 7.0 mi SSE 8.1 mph - 0.16 in Rain Heavy Rain
11:35 AM 46.4 °F 40.7 °F 44.6 °F 93% 29.85 in 7.0 mi SE 12.7 mph - 0.22 in Rain , Thunderstorm Heavy Thunderstorms and Rain
11:55 AM 46.4 °F 40.1 °F 44.6 °F 93% 29.81 in 10.0 mi SE 15.0 mph - 0.01 in Rain Rain
12:15 PM 46.4 °F 39.0 °F 46.4 °F 100% 29.80 in 10.0 mi SSE 19.6 mph 23.0 mph 0.03 in Rain Light Rain
12:35 PM 46.4 °F 39.8 °F 46.4 °F 100% 29.78 in 10.0 mi SE 16.1 mph 24.2 mph 0.03 in   Light Drizzle
12:55 PM 48.2 °F - 46.4 °F 93% 29.77 in 10.0 mi SE 16.1 mph 21.9 mph N/A   Overcast
1:15 PM 48.2 °F - 46.4 °F 93% 29.74 in 10.0 mi SE 17.3 mph 21.9 mph N/A   Overcast
1:35 PM 48.2 °F - 46.4 °F 93% 29.73 in 10.0 mi SE 18.4 mph 25.3 mph N/A   Overcast
1:55 PM 48.2 °F - 46.4 °F 93% 29.72 in 10.0 mi SSE 16.1 mph 25.3 mph N/A   Overcast
2:15 PM 48.2 °F - 46.4 °F 93% 29.71 in 10.0 mi SE 15.0 mph - N/A   Overcast
2:35 PM 51.8 °F - 48.2 °F 88% 29.69 in 10.0 mi SSE 16.1 mph 24.2 mph N/A   Overcast
2:55 PM 51.8 °F - 48.2 °F 88% 29.68 in 10.0 mi SSE 18.4 mph 23.0 mph N/A   Overcast
3:15 PM 53.6 °F - 48.2 °F 82% 29.66 in 10.0 mi SSE 19.6 mph 25.3 mph N/A   Overcast
3:35 PM 53.6 °F - 48.2 °F 82% 29.67 in 10.0 mi South 18.4 mph 25.3 mph N/A   Overcast
3:55 PM 53.6 °F - 50.0 °F 88% 29.67 in 10.0 mi South 18.4 mph 32.2 mph N/A   Overcast
4:15 PM 53.6 °F - 50.0 °F 88% 29.70 in 10.0 mi South 15.0 mph 21.9 mph N/A   Overcast
4:35 PM 53.6 °F - 50.0 °F 88% 29.71 in 10.0 mi South 13.8 mph 20.7 mph N/A   Overcast
4:55 PM 53.6 °F - 50.0 °F 88% 29.71 in 10.0 mi South 12.7 mph 24.2 mph N/A   Overcast
5:15 PM 53.6 °F - 51.8 °F 94% 29.70 in 10.0 mi South 11.5 mph 19.6 mph N/A   Overcast
5:55 PM 53.6 °F - 51.8 °F 94% 29.71 in 10.0 mi South 15.0 mph 19.6 mph N/A Rain Light Rain
6:15 PM 53.6 °F - 51.8 °F 94% 29.71 in 7.0 mi South 11.5 mph 18.4 mph N/A Rain Rain
6:35 PM 53.6 °F - 51.8 °F 94% 29.70 in 10.0 mi South 13.8 mph 18.4 mph N/A   Light Drizzle
6:55 PM 53.6 °F - 51.8 °F 94% 29.71 in 10.0 mi South 11.5 mph 18.4 mph N/A   Overcast
7:15 PM 53.6 °F - 51.8 °F 94% 29.71 in 10.0 mi South 9.2 mph - N/A   Overcast
7:35 PM 53.6 °F - 51.8 °F 94% 29.72 in 10.0 mi South 10.4 mph - N/A   Overcast
7:55 PM 53.6 °F - 51.8 °F 94% 29.72 in 10.0 mi South 11.5 mph - N/A   Overcast
8:15 PM 53.6 °F - 51.8 °F 94% 29.72 in 10.0 mi South 11.5 mph 17.3 mph N/A   Overcast
8:35 PM 53.6 °F - 51.8 °F 94% 29.72 in 10.0 mi South 10.4 mph 19.6 mph N/A   Overcast
8:55 PM 53.6 °F - 51.8 °F 94% 29.72 in 10.0 mi South 10.4 mph 18.4 mph N/A   Overcast
9:15 PM 53.6 °F - 51.8 °F 94% 29.72 in 10.0 mi South 9.2 mph 16.1 mph N/A   Overcast
9:35 PM 53.6 °F - 51.8 °F 94% 29.72 in 10.0 mi South 9.2 mph - N/A   Overcast
9:55 PM 53.6 °F - 51.8 °F 94% 29.72 in 10.0 mi SSW 9.2 mph - N/A   Mostly Cloudy
10:15 PM 53.6 °F - 51.8 °F 94% 29.72 in 10.0 mi SSW 8.1 mph - N/A   Clear
10:35 PM 53.6 °F - 51.8 °F 94% 29.73 in 10.0 mi SSW 8.1 mph - N/A   Clear
10:55 PM 53.6 °F - 51.8 °F 94% 29.74 in 10.0 mi SSW 6.9 mph - N/A   Clear
11:15 PM 53.6 °F - 51.8 °F 94% 29.74 in 10.0 mi SSW 10.4 mph - N/A   Clear
11:35 PM 53.6 °F - 48.2 °F 82% 29.74 in 10.0 mi SW 10.4 mph - N/A   Clear
11:55 PM 51.8 °F - 44.6 °F 76% 29.75 in 10.0 mi SW 6.9 mph - N/A   Clear